Tracking 23731 objects as of 26-Sep-2021
HD Live streaming from Space Station
objects crossing your sky now

SBS 2

Track SBS 2 now!
SBS 2 is classified as:


NORAD ID: 12855
Int'l Code: 1981-096A
Perigee: 35,795.9 km
Apogee: 35,854.2 km
Inclination: 13.0 °
Period: 1,437.7 minutes
Semi major axis: 42196 km
RCS: 7.6855 m2 (large)
Launch date: September 24, 1981
Source: United States (US)
Launch site: AIR FORCE EASTERN TEST RANGE (AFETR)
aabbcc
Your satellite tracking list
Your tracking list is empty




NASA's NSSDC Master Catalog

Two Line Element Set (TLE):
1 12855U 81096A   21268.46124362  .00000009  00000-0  00000-0 0  9991
2 12855  12.9629 334.5879 0006904 172.3427 203.1992  1.00160227101339
Source of the keplerian elements: AFSPC